This is the latest recevied weather packets stored in our database for station/object KE8DAF-15. If no packets are shown the sender has not sent any weather packets the latest 10 day(s).
| Time | Temp. | Humidity | Pressure | Rain* | Wind** | Luminosity | Snow |
|---|---|---|---|---|---|---|---|
| 1777817111 | 5° C | 84% | 994.8 hPa | 0 mm | - | - | - |
| 1777816811 | 5° C | 83% | 995 hPa | 0 mm | - | - | - |
| 1777816511 | 5° C | 82% | 995.2 hPa | 0 mm | - | - | - |
| 1777816211 | 5° C | 80% | 995.2 hPa | 0 mm | - | - | - |
| 1777815911 | 5° C | 80% | 995.1 hPa | 0 mm | - | - | - |
| 1777815611 | 5° C | 80% | 995.3 hPa | 0 mm | - | - | - |
| 1777815311 | 5° C | 80% | 995.5 hPa | 0 mm | - | - | - |
| 1777815011 | 5° C | 77% | 995.6 hPa | 0 mm | - | - | - |
| 1777814711 | 5° C | 73% | 995.7 hPa | 0 mm | - | - | - |
| 1777814411 | 5° C | 68% | 995.7 hPa | 0 mm | - | - | - |
| 1777814111 | 5° C | 67% | 995.8 hPa | 0 mm | - | - | - |
| 1777813811 | 5° C | 67% | 995.8 hPa | 0 mm | - | - | - |
| 1777813511 | 5° C | 67% | 995.7 hPa | 0 mm | - | - | - |
| 1777813211 | 4.44° C | 66% | 995.8 hPa | 0 mm | - | - | - |
| 1777812911 | 4.44° C | 65% | 995.8 hPa | 0 mm | - | - | - |
| 1777812611 | 4.44° C | 66% | 995.8 hPa | 0 mm | - | - | - |
| 1777812311 | 3.89° C | 66% | 995.7 hPa | 0 mm | - | - | - |
| 1777812011 | 3.89° C | 64% | 995.7 hPa | 0 mm | - | - | - |
| 1777811711 | 3.89° C | 64% | 995.8 hPa | 0 mm | - | - | - |
| 1777811411 | 3.89° C | 65% | 995.8 hPa | 0 mm | - | - | - |
| 1777811111 | 3.89° C | 65% | 995.8 hPa | 0 mm | - | - | - |
| 1777810811 | 3.89° C | 65% | 995.8 hPa | 0 mm | - | - | - |
| 1777810511 | 3.89° C | 64% | 995.7 hPa | 0 mm | - | - | - |
| 1777810211 | 3.89° C | 66% | 995.7 hPa | 0 mm | - | - | - |
| 1777809911 | 3.33° C | 66% | 995.7 hPa | 0 mm | - | - | - |
* Rain latest hour (hover to see other rain measurements)
** Current wind speed in m/s (hover to see current wind gust speed)